Time,TemperatureF,DewpointF,PressureIn,WindDirection,WindDirectionDegrees,WindSpeedMPH,WindSpeedGustMPH,Humidity,HourlyPrecipIn,Conditions,Clouds,dailyrainin,SoftwareType,DateUTC
2013-05-05 00:01:00,43.7,43.7,29.97,SE,136,20.0,30.0,100,0.09,,---,0.00,VWS V14.01,2013-05-05 04:01:00,
2013-05-05 00:06:00,43.7,43.7,29.96,ENE,69,25.0,26.0,100,0.09,,---,0.01,VWS V14.01,2013-05-05 04:06:00,
2013-05-05 00:11:00,43.7,43.7,29.96,East,89,15.0,19.0,100,0.09,,---,0.02,VWS V14.01,2013-05-05 04:11:00,
2013-05-05 00:16:00,43.8,43.8,29.95,East,81,10.0,17.0,100,0.10,,---,0.03,VWS V14.01,2013-05-05 04:16:00,
2013-05-05 00:21:00,44.0,44.0,29.95,East,94,15.0,18.0,100,0.10,,---,0.04,VWS V14.01,2013-05-05 04:21:00,
2013-05-05 00:26:00,44.0,44.0,29.95,East,87,16.0,19.0,100,0.09,,---,0.04,VWS V14.01,2013-05-05 04:26:00,
2013-05-05 00:31:00,44.0,44.0,29.97,East,95,11.0,22.0,100,0.09,,---,0.05,VWS V14.01,2013-05-05 04:31:00,
2013-05-05 00:36:00,44.0,44.0,29.97,East,85,12.0,26.0,100,0.10,,---,0.06,VWS V14.01,2013-05-05 04:36:00,
2013-05-05 00:41:00,44.0,44.0,29.96,ESE,118,10.0,22.0,100,0.09,,---,0.06,VWS V14.01,2013-05-05 04:41:00,
2013-05-05 00:46:00,44.0,44.0,29.96,SE,137,8.0,14.0,100,0.09,,---,0.07,VWS V14.01,2013-05-05 04:46:00,
2013-05-05 00:51:00,43.8,43.8,29.95,SE,133,10.0,13.0,100,0.09,,---,0.08,VWS V14.01,2013-05-05 04:51:00,
2013-05-05 00:56:00,43.9,43.9,29.95,ENE,75,10.0,15.0,100,0.09,,---,0.09,VWS V14.01,2013-05-05 04:56:00,
2013-05-05 01:01:00,43.8,43.8,29.95,SE,145,17.0,22.0,100,0.10,,---,0.10,VWS V14.01,2013-05-05 05:01:00,
2013-05-05 01:06:00,44.1,44.1,29.95,East,93,15.0,22.0,100,0.09,,---,0.10,VWS V14.01,2013-05-05 05:06:00,
2013-05-05 01:11:00,44.2,44.2,29.94,East,83,7.0,26.0,100,0.09,,---,0.11,VWS V14.01,2013-05-05 05:11:00,
2013-05-05 01:16:00,44.2,44.2,29.94,ESE,106,11.0,14.0,100,0.10,,---,0.12,VWS V14.01,2013-05-05 05:16:00,
2013-05-05 01:21:00,44.3,44.3,29.95,ESE,103,15.0,18.0,100,0.10,,---,0.13,VWS V14.01,2013-05-05 05:21:00,
2013-05-05 01:26:00,44.4,44.4,29.94,ENE,78,9.0,20.0,100,0.10,,---,0.14,VWS V14.01,2013-05-05 05:26:00,
2013-05-05 01:31:00,44.3,44.3,29.94,ENE,73,10.0,17.0,100,0.09,,---,0.14,VWS V14.01,2013-05-05 05:31:00,
2013-05-05 01:36:00,44.2,44.2,29.94,East,83,4.0,19.0,100,0.09,,---,0.15,VWS V14.01,2013-05-05 05:36:00,
2013-05-05 01:41:00,44.0,44.0,29.94,East,89,9.0,17.0,100,0.10,,---,0.16,VWS V14.01,2013-05-05 05:41:00,
2013-05-05 01:46:00,43.9,43.9,29.94,ENE,65,11.0,16.0,100,0.09,,---,0.16,VWS V14.01,2013-05-05 05:46:00,
2013-05-05 01:51:00,43.6,43.6,29.94,ENE,76,11.0,15.0,100,0.09,,---,0.17,VWS V14.01,2013-05-05 05:51:00,
2013-05-05 01:56:00,43.4,43.4,29.93,East,84,7.0,19.0,100,0.09,,---,0.18,VWS V14.01,2013-05-05 05:56:00,
2013-05-05 02:01:00,43.3,43.3,29.94,SE,125,9.0,14.0,100,0.09,,---,0.19,VWS V14.01,2013-05-05 06:01:00,
2013-05-05 02:06:00,43.4,43.4,29.93,ESE,104,9.0,18.0,100,0.10,,---,0.20,VWS V14.01,2013-05-05 06:06:00,
2013-05-05 02:11:00,43.6,43.6,29.92,East,98,15.0,23.0,100,0.09,,---,0.20,VWS V14.01,2013-05-05 06:11:00,
2013-05-05 02:16:00,43.5,43.5,29.92,ESE,115,18.0,27.0,100,0.09,,---,0.21,VWS V14.01,2013-05-05 06:16:00,
2013-05-05 02:21:00,43.6,43.6,29.90,ESE,112,16.0,20.0,100,0.09,,---,0.22,VWS V14.01,2013-05-05 06:21:00,
2013-05-05 02:26:00,43.8,43.8,29.91,ENE,74,13.0,23.0,100,0.09,,---,0.22,VWS V14.01,2013-05-05 06:26:00,
2013-05-05 02:31:00,43.8,43.8,29.90,East,84,16.0,21.0,100,0.09,,---,0.23,VWS V14.01,2013-05-05 06:31:00,
2013-05-05 02:36:00,43.6,43.6,29.90,East,89,15.0,19.0,100,0.09,,---,0.24,VWS V14.01,2013-05-05 06:36:00,
2013-05-05 02:41:00,43.6,43.6,29.90,East,101,24.0,34.0,100,0.09,,---,0.25,VWS V14.01,2013-05-05 06:41:00,
2013-05-05 02:46:00,43.9,43.9,29.91,ENE,78,11.0,23.0,100,0.10,,---,0.26,VWS V14.01,2013-05-05 06:46:00,
2013-05-05 02:51:00,44.0,44.0,29.91,East,86,20.0,22.0,100,0.09,,---,0.26,VWS V14.01,2013-05-05 06:51:00,
2013-05-05 02:56:00,43.9,43.9,29.91,ESE,111,14.0,25.0,100,0.09,,---,0.27,VWS V14.01,2013-05-05 06:56:00,
2013-05-05 03:01:00,43.7,43.7,29.91,East,86,17.0,24.0,100,0.09,,---,0.28,VWS V14.01,2013-05-05 07:01:00,
2013-05-05 03:06:00,43.5,43.5,29.91,East,91,13.0,26.0,100,0.08,,---,0.28,VWS V14.01,2013-05-05 07:06:00,
2013-05-05 03:11:00,43.4,43.4,29.91,ESE,106,11.0,25.0,100,0.09,,---,0.29,VWS V14.01,2013-05-05 07:11:00,
2013-05-05 03:16:00,43.3,43.3,29.90,East,89,8.0,16.0,100,0.09,,---,0.30,VWS V14.01,2013-05-05 07:16:00,
2013-05-05 03:21:00,43.3,43.3,29.90,East,99,22.0,23.0,100,0.09,,---,0.31,VWS V14.01,2013-05-05 07:21:00,
2013-05-05 03:26:00,43.3,43.3,29.89,East,93,7.0,18.0,100,0.10,,---,0.32,VWS V14.01,2013-05-05 07:26:00,
2013-05-05 03:31:00,43.3,43.3,29.88,ENE,68,15.0,16.0,100,0.09,,---,0.32,VWS V14.01,2013-05-05 07:31:00,
2013-05-05 03:36:00,43.3,43.3,29.89,East,79,23.0,23.0,100,0.09,,---,0.33,VWS V14.01,2013-05-05 07:36:00,
2013-05-05 03:41:00,43.4,43.4,29.90,East,97,5.0,23.0,100,0.09,,---,0.34,VWS V14.01,2013-05-05 07:41:00,
2013-05-05 03:46:00,43.4,43.4,29.90,ESE,103,16.0,22.0,100,0.08,,---,0.34,VWS V14.01,2013-05-05 07:46:00,
2013-05-05 03:51:00,43.3,43.3,29.89,NE,35,20.0,28.0,100,0.09,,---,0.35,VWS V14.01,2013-05-05 07:51:00,
2013-05-05 03:56:00,43.3,43.3,29.88,East,99,16.0,23.0,100,0.09,,---,0.36,VWS V14.01,2013-05-05 07:56:00,
2013-05-05 04:01:00,43.2,43.2,29.89,ENE,76,27.0,27.0,100,0.08,,---,0.36,VWS V14.01,2013-05-05 08:01:00,
2013-05-05 04:06:00,43.3,43.3,29.88,ESE,114,15.0,16.0,100,0.09,,---,0.37,VWS V14.01,2013-05-05 08:06:00,
2013-05-05 04:11:00,43.4,43.4,29.88,ESE,112,13.0,23.0,100,0.09,,---,0.38,VWS V14.01,2013-05-05 08:11:00,
2013-05-05 04:16:00,43.4,43.4,29.88,East,101,11.0,19.0,100,0.09,,---,0.39,VWS V14.01,2013-05-05 08:16:00,
2013-05-05 04:21:00,43.6,43.6,29.88,ENE,74,9.0,14.0,100,0.08,,---,0.39,VWS V14.01,2013-05-05 08:21:00,
2013-05-05 04:26:00,43.7,43.7,29.88,SSE,158,7.0,17.0,100,0.08,,---,0.40,VWS V14.01,2013-05-05 08:26:00,
2013-05-05 04:31:00,43.8,43.8,29.88,ESE,121,6.0,23.0,100,0.09,,---,0.41,VWS V14.01,2013-05-05 08:31:00,
2013-05-05 04:36:00,43.9,43.9,29.87,East,84,13.0,20.0,100,0.09,,---,0.42,VWS V14.01,2013-05-05 08:36:00,
2013-05-05 04:41:00,44.0,44.0,29.86,ENE,72,11.0,18.0,100,0.08,,---,0.42,VWS V14.01,2013-05-05 08:41:00,
2013-05-05 04:45:00,43.9,43.9,29.86,East,95,14.0,28.0,100,0.09,,---,0.43,VWS V14.01,2013-05-05 08:45:00,
2013-05-05 04:50:00,43.9,43.9,29.86,East,86,12.0,17.0,100,0.09,,---,0.44,VWS V14.01,2013-05-05 08:50:00,
2013-05-05 04:55:00,44.0,44.0,29.85,East,99,15.0,23.0,100,0.08,,---,0.44,VWS V14.01,2013-05-05 08:55:00,
2013-05-05 05:00:00,44.0,44.0,29.85,East,98,14.0,20.0,100,0.09,,---,0.45,VWS V14.01,2013-05-05 09:00:00,
2013-05-05 05:05:00,44.1,44.1,29.86,SE,129,15.0,21.0,100,0.09,,---,0.46,VWS V14.01,2013-05-05 09:05:00,
2013-05-05 05:10:00,44.0,44.0,29.86,East,95,17.0,19.0,100,0.09,,---,0.47,VWS V14.01,2013-05-05 09:10:00,
2013-05-05 05:15:00,44.2,44.2,29.85,ESE,117,14.0,14.0,100,0.08,,---,0.47,VWS V14.01,2013-05-05 09:15:00,
2013-05-05 05:20:00,44.3,44.3,29.85,ESE,118,11.0,16.0,100,0.09,,---,0.48,VWS V14.01,2013-05-05 09:20:00,
2013-05-05 05:25:00,44.4,44.4,29.85,East,93,17.0,27.0,100,0.09,,---,0.49,VWS V14.01,2013-05-05 09:25:00,
2013-05-05 05:30:00,44.3,44.3,29.87,SSE,154,13.0,13.0,100,0.09,,---,0.50,VWS V14.01,2013-05-05 09:30:00,
2013-05-05 05:35:00,44.2,44.2,29.87,SE,126,17.0,18.0,100,0.09,,---,0.50,VWS V14.01,2013-05-05 09:35:00,
2013-05-05 05:40:00,43.9,43.9,29.86,ESE,112,11.0,12.0,100,0.09,,---,0.51,VWS V14.01,2013-05-05 09:40:00,
2013-05-05 05:45:00,43.8,43.8,29.86,East,99,3.0,13.0,100,0.09,,---,0.52,VWS V14.01,2013-05-05 09:45:00,
2013-05-05 05:50:00,43.7,43.7,29.85,SSE,152,14.0,19.0,100,0.08,,---,0.52,VWS V14.01,2013-05-05 09:50:00,
2013-05-05 05:55:00,43.6,43.6,29.85,East,100,12.0,16.0,100,0.09,,---,0.53,VWS V14.01,2013-05-05 09:55:00,
2013-05-05 06:00:00,43.7,43.7,29.86,SE,127,24.0,24.0,100,0.09,,---,0.54,VWS V14.01,2013-05-05 10:00:00,
2013-05-05 06:05:00,43.6,43.6,29.85,ESE,104,10.0,18.0,100,0.09,,---,0.55,VWS V14.01,2013-05-05 10:05:00,
2013-05-05 06:10:00,43.7,43.7,29.84,ESE,114,22.0,22.0,100,0.09,,---,0.55,VWS V14.01,2013-05-05 10:10:00,
2013-05-05 06:15:00,43.7,43.7,29.84,East,93,10.0,21.0,100,0.09,,---,0.56,VWS V14.01,2013-05-05 10:15:00,
2013-05-05 06:20:00,43.7,43.7,29.85,East,87,8.0,17.0,100,0.09,,---,0.57,VWS V14.01,2013-05-05 10:20:00,
2013-05-05 06:25:00,43.6,43.6,29.86,SE,138,14.0,14.0,100,0.08,,---,0.57,VWS V14.01,2013-05-05 10:25:00,
2013-05-05 06:30:00,43.6,43.6,29.85,SE,140,11.0,14.0,100,0.08,,---,0.58,VWS V14.01,2013-05-05 10:30:00,
2013-05-05 06:35:00,43.7,43.7,29.85,ENE,65,17.0,17.0,100,0.09,,---,0.59,VWS V14.01,2013-05-05 10:35:00,
2013-05-05 06:40:00,43.8,43.8,29.86,East,86,16.0,18.0,100,0.09,,---,0.60,VWS V14.01,2013-05-05 10:40:00,
2013-05-05 06:45:00,43.7,43.7,29.85,ESE,104,18.0,22.0,100,0.08,,---,0.60,VWS V14.01,2013-05-05 10:45:00,
2013-05-05 06:50:00,43.6,43.6,29.85,ENE,60,14.0,29.0,100,0.09,,---,0.61,VWS V14.01,2013-05-05 10:50:00,
2013-05-05 06:55:00,43.6,43.6,29.85,ESE,106,8.0,11.0,100,0.09,,---,0.62,VWS V14.01,2013-05-05 10:55:00,
2013-05-05 07:00:00,43.7,43.7,29.86,East,81,16.0,16.0,100,0.09,,---,0.63,VWS V14.01,2013-05-05 11:00:00,
2013-05-05 07:05:00,43.7,43.7,29.85,East,95,13.0,17.0,100,0.08,,---,0.63,VWS V14.01,2013-05-05 11:05:00,
2013-05-05 07:10:00,43.7,43.7,29.85,ESE,114,16.0,17.0,100,0.09,,---,0.64,VWS V14.01,2013-05-05 11:10:00,
2013-05-05 07:15:00,43.7,43.7,29.85,SE,141,14.0,17.0,100,0.09,,---,0.65,VWS V14.01,2013-05-05 11:15:00,
2013-05-05 07:20:00,43.7,43.7,29.85,SSE,161,20.0,25.0,100,0.09,,---,0.66,VWS V14.01,2013-05-05 11:20:00,
2013-05-05 07:25:00,43.9,43.9,29.84,East,89,20.0,20.0,100,0.09,,---,0.66,VWS V14.01,2013-05-05 11:25:00,
2013-05-05 07:30:00,44.1,44.1,29.85,ESE,114,32.0,32.0,100,0.09,,---,0.67,VWS V14.01,2013-05-05 11:30:00,
2013-05-05 07:35:00,44.2,44.2,29.85,ENE,61,15.0,15.0,100,0.09,,---,0.68,VWS V14.01,2013-05-05 11:35:00,
2013-05-05 07:40:00,44.2,44.2,29.85,ESE,107,12.0,24.0,100,0.09,,---,0.69,VWS V14.01,2013-05-05 11:40:00,
2013-05-05 07:45:00,44.2,44.2,29.86,East,101,18.0,22.0,100,0.09,,---,0.69,VWS V14.01,2013-05-05 11:45:00,
2013-05-05 07:50:00,44.2,44.2,29.86,East,93,12.0,14.0,100,0.09,,---,0.70,VWS V14.01,2013-05-05 11:50:00,
2013-05-05 07:55:00,43.8,43.8,29.86,East,97,14.0,26.0,100,0.09,,---,0.71,VWS V14.01,2013-05-05 11:55:00,
2013-05-05 08:00:00,43.6,43.6,29.86,SE,140,12.0,17.0,100,0.09,,---,0.71,VWS V14.01,2013-05-05 12:00:00,
2013-05-05 08:05:00,43.4,43.4,29.86,ESE,107,7.0,10.0,100,0.09,,---,0.72,VWS V14.01,2013-05-05 12:05:00,
2013-05-05 08:10:00,43.5,43.5,29.87,ESE,114,24.0,34.0,100,0.09,,---,0.73,VWS V14.01,2013-05-05 12:10:00,
2013-05-05 08:15:00,43.5,43.5,29.86,East,81,17.0,26.0,100,0.08,,---,0.73,VWS V14.01,2013-05-05 12:15:00,
2013-05-05 08:20:00,43.5,43.5,29.86,ESE,121,21.0,21.0,100,0.08,,---,0.74,VWS V14.01,2013-05-05 12:20:00,
2013-05-05 08:25:00,43.4,43.4,29.86,ENE,76,3.0,7.0,100,0.09,,---,0.75,VWS V14.01,2013-05-05 12:25:00,
2013-05-05 08:30:00,43.4,43.4,29.87,SE,129,22.0,22.0,100,0.09,,---,0.76,VWS V14.01,2013-05-05 12:30:00,
2013-05-05 08:35:00,43.3,43.3,29.86,East,81,13.0,15.0,100,0.08,,---,0.76,VWS V14.01,2013-05-05 12:35:00,
2013-05-05 08:40:00,43.1,43.1,29.86,East,81,14.0,16.0,100,0.09,,---,0.77,VWS V14.01,2013-05-05 12:40:00,
2013-05-05 08:45:00,43.1,43.1,29.86,East,97,15.0,15.0,100,0.09,,---,0.78,VWS V14.01,2013-05-05 12:45:00,
2013-05-05 08:50:00,43.0,43.0,29.86,East,95,21.0,29.0,100,0.09,,---,0.79,VWS V14.01,2013-05-05 12:50:00,
2013-05-05 08:55:00,42.9,42.9,29.86,ESE,108,20.0,26.0,100,0.08,,---,0.79,VWS V14.01,2013-05-05 12:55:00,
2013-05-05 09:00:00,42.7,42.7,29.85,ESE,106,12.0,24.0,100,0.09,,---,0.80,VWS V14.01,2013-05-05 13:00:00,
2013-05-05 09:05:00,42.7,42.7,29.86,East,90,16.0,30.0,100,0.09,,---,0.81,VWS V14.01,2013-05-05 13:05:00,
2013-05-05 09:10:00,42.8,42.8,29.86,East,86,13.0,19.0,100,0.10,,---,0.82,VWS V14.01,2013-05-05 13:10:00,
2013-05-05 09:15:00,42.7,42.7,29.87,ESE,106,13.0,24.0,100,0.09,,---,0.82,VWS V14.01,2013-05-05 13:15:00,
2013-05-05 09:20:00,42.9,42.9,29.87,ESE,121,17.0,19.0,100,0.09,,---,0.83,VWS V14.01,2013-05-05 13:20:00,
2013-05-05 09:25:00,43.0,43.0,29.87,SE,143,18.0,18.0,100,0.09,,---,0.84,VWS V14.01,2013-05-05 13:25:00,
2013-05-05 09:30:00,42.9,42.9,29.88,East,95,9.0,30.0,100,0.08,,---,0.84,VWS V14.01,2013-05-05 13:30:00,
2013-05-05 09:35:00,42.9,42.9,29.90,ENE,74,19.0,22.0,100,0.09,,---,0.85,VWS V14.01,2013-05-05 13:35:00,
2013-05-05 09:40:00,42.7,42.7,29.89,East,80,11.0,18.0,100,0.09,,---,0.86,VWS V14.01,2013-05-05 13:40:00,
2013-05-05 09:45:00,42.3,42.3,29.88,SE,124,14.0,27.0,100,0.09,,---,0.87,VWS V14.01,2013-05-05 13:45:00,
2013-05-05 09:50:00,42.1,42.1,29.88,ESE,105,9.0,13.0,100,0.10,,---,0.88,VWS V14.01,2013-05-05 13:50:00,
2013-05-05 09:55:00,42.0,42.0,29.88,ENE,68,4.0,27.0,100,0.09,,---,0.88,VWS V14.01,2013-05-05 13:55:00,
2013-05-05 10:00:00,42.1,42.1,29.88,East,97,3.0,10.0,100,0.09,,---,0.89,VWS V14.01,2013-05-05 14:00:00,
2013-05-05 10:05:00,41.9,41.9,29.87,ESE,107,13.0,23.0,100,0.09,,---,0.90,VWS V14.01,2013-05-05 14:05:00,
2013-05-05 10:10:00,42.2,42.2,29.87,ESE,107,21.0,21.0,100,0.08,,---,0.90,VWS V14.01,2013-05-05 14:10:00,
2013-05-05 10:15:00,42.5,42.5,29.87,ESE,112,19.0,24.0,100,0.09,,---,0.91,VWS V14.01,2013-05-05 14:15:00,
2013-05-05 10:20:00,42.8,42.8,29.86,ENE,62,17.0,21.0,100,0.09,,---,0.92,VWS V14.01,2013-05-05 14:20:00,
2013-05-05 10:25:00,42.9,42.9,29.86,East,97,13.0,30.0,100,0.09,,---,0.93,VWS V14.01,2013-05-05 14:25:00,
2013-05-05 10:30:00,42.9,42.9,29.86,East,101,18.0,21.0,100,0.10,,---,0.94,VWS V14.01,2013-05-05 14:30:00,
2013-05-05 10:35:00,42.8,42.8,29.86,ENE,73,12.0,24.0,100,0.09,,---,0.94,VWS V14.01,2013-05-05 14:35:00,
2013-05-05 10:40:00,42.7,42.7,29.87,SE,129,22.0,25.0,100,0.09,,---,0.95,VWS V14.01,2013-05-05 14:40:00,
2013-05-05 10:45:00,42.4,42.4,29.88,ESE,106,15.0,18.0,100,0.09,,---,0.96,VWS V14.01,2013-05-05 14:45:00,
2013-05-05 10:50:00,42.2,42.2,29.87,East,89,14.0,21.0,100,0.10,,---,0.97,VWS V14.01,2013-05-05 14:50:00,
2013-05-05 10:55:00,42.5,42.5,29.88,East,81,14.0,24.0,100,0.09,,---,0.97,VWS V14.01,2013-05-05 14:55:00,
2013-05-05 11:00:00,42.6,42.6,29.88,ESE,114,24.0,29.0,100,0.09,,---,0.98,VWS V14.01,2013-05-05 15:00:00,
2013-05-05 11:05:00,42.5,42.5,29.88,East,82,22.0,23.0,100,0.09,,---,0.99,VWS V14.01,2013-05-05 15:05:00,
2013-05-05 11:10:00,42.6,42.6,29.87,East,95,18.0,23.0,100,0.10,,---,1.00,VWS V14.01,2013-05-05 15:10:00,
2013-05-05 11:15:00,42.7,42.7,29.88,East,99,19.0,22.0,100,0.10,,---,1.01,VWS V14.01,2013-05-05 15:15:00,
2013-05-05 11:20:00,42.7,42.7,29.88,SE,135,10.0,23.0,100,0.09,,---,1.01,VWS V14.01,2013-05-05 15:20:00,
2013-05-05 11:25:00,42.8,42.8,29.87,ESE,112,15.0,24.0,100,0.09,,---,1.02,VWS V14.01,2013-05-05 15:25:00,
2013-05-05 11:30:00,42.9,42.9,29.87,ENE,68,16.0,26.0,100,0.10,,---,1.03,VWS V14.01,2013-05-05 15:30:00,
2013-05-05 11:35:00,43.2,43.2,29.88,SE,138,16.0,27.0,100,0.10,,---,1.04,VWS V14.01,2013-05-05 15:35:00,
2013-05-05 11:40:00,43.4,43.4,29.88,SE,142,16.0,21.0,100,0.10,,---,1.05,VWS V14.01,2013-05-05 15:40:00,
2013-05-05 11:45:00,43.5,43.5,29.87,East,93,23.0,24.0,100,0.10,,---,1.06,VWS V14.01,2013-05-05 15:45:00,
2013-05-05 11:50:00,43.7,43.7,29.88,ESE,122,28.0,28.0,100,0.10,,---,1.06,VWS V14.01,2013-05-05 15:50:00,
2013-05-05 11:55:00,43.7,43.7,29.87,East,95,21.0,25.0,100,0.10,,---,1.07,VWS V14.01,2013-05-05 15:55:00,
2013-05-05 12:00:00,43.6,43.6,29.87,East,80,18.0,25.0,100,0.10,,---,1.08,VWS V14.01,2013-05-05 16:00:00,
2013-05-05 12:05:00,43.9,43.9,29.87,ESE,106,18.0,18.0,100,0.10,,---,1.09,VWS V14.01,2013-05-05 16:05:00,
2013-05-05 12:10:00,43.9,43.9,29.87,East,88,19.0,30.0,100,0.10,,---,1.10,VWS V14.01,2013-05-05 16:10:00,
2013-05-05 12:15:00,43.7,43.7,29.87,ESE,103,30.0,30.0,100,0.11,,---,1.11,VWS V14.01,2013-05-05 16:15:00,
2013-05-05 12:20:00,43.7,43.7,29.87,ENE,74,10.0,32.0,100,0.11,,---,1.12,VWS V14.01,2013-05-05 16:20:00,
2013-05-05 12:25:00,43.7,43.7,29.87,East,95,16.0,20.0,100,0.10,,---,1.12,VWS V14.01,2013-05-05 16:25:00,
2013-05-05 12:30:00,43.8,43.8,29.87,ESE,110,22.0,22.0,100,0.10,,---,1.13,VWS V14.01,2013-05-05 16:30:00,
2013-05-05 12:35:00,43.7,43.7,29.88,ENE,68,14.0,15.0,100,0.10,,---,1.14,VWS V14.01,2013-05-05 16:35:00,
2013-05-05 12:40:00,43.5,43.5,29.88,ESE,108,14.0,18.0,100,0.10,,---,1.15,VWS V14.01,2013-05-05 16:40:00,
2013-05-05 12:45:00,43.5,43.5,29.88,East,88,16.0,29.0,100,0.10,,---,1.16,VWS V14.01,2013-05-05 16:45:00,
2013-05-05 12:50:00,43.6,43.6,29.88,SE,135,17.0,22.0,100,0.10,,---,1.16,VWS V14.01,2013-05-05 16:50:00,
2013-05-05 12:55:00,43.6,43.6,29.87,ENE,63,13.0,28.0,100,0.10,,---,1.17,VWS V14.01,2013-05-05 16:55:00,
2013-05-05 13:00:00,43.9,43.9,29.87,ENE,76,14.0,19.0,100,0.10,,---,1.18,VWS V14.01,2013-05-05 17:00:00,
2013-05-05 13:05:00,44.1,44.1,29.87,ENE,70,10.0,11.0,100,0.10,,---,1.19,VWS V14.01,2013-05-05 17:05:00,
2013-05-05 13:10:00,44.4,44.4,29.87,ENE,74,17.0,22.0,100,0.10,,---,1.20,VWS V14.01,2013-05-05 17:10:00,
2013-05-05 13:15:00,44.3,44.3,29.87,SE,133,14.0,17.0,100,0.10,,---,1.20,VWS V14.01,2013-05-05 17:15:00,
2013-05-05 13:20:00,44.4,44.4,29.86,East,94,17.0,28.0,100,0.10,,---,1.21,VWS V14.01,2013-05-05 17:20:00,
2013-05-05 13:25:00,44.3,44.3,29.87,East,82,9.0,14.0,100,0.10,,---,1.22,VWS V14.01,2013-05-05 17:25:00,
2013-05-05 13:30:00,44.3,44.3,29.87,ENE,60,20.0,23.0,100,0.10,,---,1.23,VWS V14.01,2013-05-05 17:30:00,
2013-05-05 13:35:00,44.4,44.4,29.86,SE,124,17.0,29.0,100,0.10,,---,1.24,VWS V14.01,2013-05-05 17:35:00,
2013-05-05 13:40:00,44.3,44.3,29.87,East,95,11.0,15.0,100,0.10,,---,1.24,VWS V14.01,2013-05-05 17:40:00,
2013-05-05 13:45:00,44.2,44.2,29.87,SE,124,8.0,20.0,100,0.10,,---,1.25,VWS V14.01,2013-05-05 17:45:00,
2013-05-05 13:50:00,44.2,44.2,29.87,ESE,110,7.0,21.0,100,0.10,,---,1.26,VWS V14.01,2013-05-05 17:50:00,
2013-05-05 13:55:00,44.1,44.1,29.87,East,90,19.0,19.0,100,0.10,,---,1.27,VWS V14.01,2013-05-05 17:55:00,
2013-05-05 14:00:00,44.4,44.4,29.86,ESE,122,25.0,27.0,100,0.10,,---,1.28,VWS V14.01,2013-05-05 18:00:00,
2013-05-05 14:05:00,44.6,44.6,29.86,East,95,9.0,22.0,100,0.09,,---,1.28,VWS V14.01,2013-05-05 18:05:00,
2013-05-05 14:10:00,44.4,44.4,29.86,ENE,73,7.0,24.0,100,0.09,,---,1.29,VWS V14.01,2013-05-05 18:10:00,
2013-05-05 14:15:00,44.3,44.3,29.85,ESE,110,18.0,23.0,100,0.10,,---,1.30,VWS V14.01,2013-05-05 18:15:00,
2013-05-05 14:20:00,44.5,44.5,29.85,East,83,14.0,21.0,100,0.10,,---,1.31,VWS V14.01,2013-05-05 18:20:00,
2013-05-05 14:25:00,44.3,44.3,29.85,East,95,12.0,25.0,100,0.10,,---,1.32,VWS V14.01,2013-05-05 18:25:00,
2013-05-05 14:30:00,44.5,44.5,29.85,ESE,108,9.0,16.0,100,0.09,,---,1.32,VWS V14.01,2013-05-05 18:30:00,
2013-05-05 14:35:00,44.3,44.3,29.85,East,95,11.0,27.0,100,0.10,,---,1.34,VWS V14.01,2013-05-05 18:35:00,
2013-05-05 14:40:00,44.3,44.3,29.84,ENE,74,25.0,25.0,100,0.10,,---,1.34,VWS V14.01,2013-05-05 18:40:00,
2013-05-05 14:45:00,44.2,44.2,29.84,East,86,15.0,20.0,100,0.10,,---,1.35,VWS V14.01,2013-05-05 18:45:00,
2013-05-05 14:50:00,44.2,44.2,29.84,ESE,117,24.0,26.0,100,0.10,,---,1.36,VWS V14.01,2013-05-05 18:50:00,
2013-05-05 14:55:00,44.2,44.2,29.84,ENE,61,20.0,21.0,100,0.09,,---,1.36,VWS V14.01,2013-05-05 18:55:00,
2013-05-05 15:00:00,44.1,44.1,29.84,East,99,15.0,22.0,100,0.09,,---,1.37,VWS V14.01,2013-05-05 19:00:00,
2013-05-05 15:05:00,44.1,44.1,29.84,East,87,9.0,15.0,100,0.10,,---,1.38,VWS V14.01,2013-05-05 19:05:00,
2013-05-05 15:10:00,44.1,44.1,29.85,SE,145,5.0,15.0,100,0.10,,---,1.39,VWS V14.01,2013-05-05 19:10:00,
2013-05-05 15:15:00,44.1,44.1,29.85,SE,124,13.0,18.0,100,0.10,,---,1.40,VWS V14.01,2013-05-05 19:15:00,
2013-05-05 15:20:00,44.1,44.1,29.85,East,91,13.0,22.0,100,0.09,,---,1.40,VWS V14.01,2013-05-05 19:20:00,
2013-05-05 15:25:00,44.0,44.0,29.85,East,92,12.0,18.0,100,0.09,,---,1.41,VWS V14.01,2013-05-05 19:25:00,
2013-05-05 15:30:00,44.1,44.1,29.85,ESE,119,10.0,17.0,100,0.10,,---,1.42,VWS V14.01,2013-05-05 19:30:00,
2013-05-05 15:35:00,44.1,44.1,29.85,ESE,114,11.0,16.0,100,0.09,,---,1.42,VWS V14.01,2013-05-05 19:35:00,
2013-05-05 15:40:00,44.1,44.1,29.86,ESE,122,7.0,12.0,100,0.09,,---,1.43,VWS V14.01,2013-05-05 19:40:00,
2013-05-05 15:45:00,44.2,44.2,29.86,East,87,5.0,14.0,100,0.09,,---,1.44,VWS V14.01,2013-05-05 19:45:00,
2013-05-05 15:50:00,44.2,44.2,29.86,ESE,108,5.0,8.0,100,0.09,,---,1.45,VWS V14.01,2013-05-05 19:50:00,
2013-05-05 15:55:00,44.3,44.3,29.86,ESE,120,9.0,9.0,100,0.10,,---,1.46,VWS V14.01,2013-05-05 19:55:00,
2013-05-05 16:00:00,44.4,44.4,29.86,East,95,8.0,13.0,100,0.09,,---,1.46,VWS V14.01,2013-05-05 20:00:00,
2013-05-05 16:05:00,44.7,44.7,29.86,SSE,162,6.0,10.0,100,0.09,,---,1.47,VWS V14.01,2013-05-05 20:05:00,
2013-05-05 16:10:00,44.5,44.5,29.86,SSE,158,9.0,9.0,100,0.09,,---,1.48,VWS V14.01,2013-05-05 20:10:00,
2013-05-05 16:15:00,44.6,44.6,29.85,East,96,10.0,16.0,100,0.08,,---,1.48,VWS V14.01,2013-05-05 20:15:00,
2013-05-05 16:20:00,45.0,45.0,29.85,ESE,114,8.0,10.0,100,0.09,,---,1.49,VWS V14.01,2013-05-05 20:20:00,
2013-05-05 16:25:00,45.5,45.5,29.85,ESE,111,15.0,15.0,100,0.09,,---,1.50,VWS V14.01,2013-05-05 20:25:00,
2013-05-05 16:30:00,45.6,45.6,29.84,ESE,118,11.0,16.0,100,0.09,,---,1.51,VWS V14.01,2013-05-05 20:30:00,
2013-05-05 16:35:00,45.4,45.4,29.84,ESE,108,12.0,19.0,100,0.09,,---,1.51,VWS V14.01,2013-05-05 20:35:00,
2013-05-05 16:40:00,45.0,45.0,29.85,ESE,118,14.0,14.0,100,0.09,,---,1.52,VWS V14.01,2013-05-05 20:40:00,
2013-05-05 16:45:00,45.0,45.0,29.85,ESE,119,9.0,10.0,100,0.09,,---,1.53,VWS V14.01,2013-05-05 20:45:00,
2013-05-05 16:50:00,44.7,44.7,29.84,East,81,11.0,21.0,100,0.09,,---,1.54,VWS V14.01,2013-05-05 20:50:00,
2013-05-05 16:55:00,44.7,44.7,29.85,SE,130,10.0,16.0,100,0.08,,---,1.54,VWS V14.01,2013-05-05 20:55:00,
2013-05-05 17:00:00,44.9,44.9,29.85,SSE,154,10.0,10.0,100,0.09,,---,1.55,VWS V14.01,2013-05-05 21:00:00,
2013-05-05 17:05:00,44.9,44.9,29.85,East,84,6.0,15.0,100,0.09,,---,1.56,VWS V14.01,2013-05-05 21:05:00,
2013-05-05 17:10:00,44.9,44.9,29.85,East,89,11.0,17.0,100,0.08,,---,1.56,VWS V14.01,2013-05-05 21:10:00,
2013-05-05 17:15:00,44.9,44.9,29.85,ESE,108,12.0,12.0,100,0.09,,---,1.57,VWS V14.01,2013-05-05 21:15:00,
2013-05-05 17:20:00,44.8,44.8,29.85,SSE,167,9.0,13.0,100,0.09,,---,1.58,VWS V14.01,2013-05-05 21:20:00,
2013-05-05 17:25:00,44.9,44.9,29.84,ESE,116,8.0,13.0,100,0.08,,---,1.58,VWS V14.01,2013-05-05 21:25:00,
2013-05-05 17:30:00,44.9,44.9,29.85,East,96,9.0,11.0,100,0.09,,---,1.59,VWS V14.01,2013-05-05 21:30:00,
2013-05-05 17:35:00,44.9,44.9,29.84,ESE,123,10.0,15.0,100,0.09,,---,1.60,VWS V14.01,2013-05-05 21:35:00,
2013-05-05 17:39:00,44.9,44.9,29.85,ESE,117,11.0,11.0,100,0.08,,---,1.60,VWS V14.01,2013-05-05 21:39:00,
2013-05-05 17:44:00,44.8,44.8,29.84,East,89,12.0,12.0,100,0.08,,---,1.61,VWS V14.01,2013-05-05 21:44:00,
2013-05-05 17:49:00,44.9,44.9,29.84,ESE,106,9.0,10.0,100,0.08,,---,1.62,VWS V14.01,2013-05-05 21:49:00,
2013-05-05 17:54:00,45.1,45.1,29.84,ESE,103,9.0,9.0,100,0.08,,---,1.62,VWS V14.01,2013-05-05 21:54:00,
2013-05-05 17:59:00,45.2,45.2,29.84,ENE,78,5.0,11.0,100,0.08,,---,1.63,VWS V14.01,2013-05-05 21:59:00,
2013-05-05 18:04:00,45.3,45.3,29.84,ESE,115,15.0,16.0,100,0.08,,---,1.64,VWS V14.01,2013-05-05 22:04:00,
2013-05-05 18:09:00,45.3,45.3,29.84,SE,135,8.0,18.0,100,0.08,,---,1.64,VWS V14.01,2013-05-05 22:09:00,
2013-05-05 18:14:00,45.4,45.4,29.84,East,99,5.0,14.0,100,0.08,,---,1.65,VWS V14.01,2013-05-05 22:14:00,
2013-05-05 18:19:00,45.3,45.3,29.84,ESE,122,6.0,7.0,100,0.08,,---,1.66,VWS V14.01,2013-05-05 22:19:00,
2013-05-05 18:24:00,45.4,45.4,29.84,ESE,120,5.0,13.0,100,0.08,,---,1.66,VWS V14.01,2013-05-05 22:24:00,
2013-05-05 18:29:00,45.3,45.3,29.84,East,98,10.0,11.0,100,0.08,,---,1.67,VWS V14.01,2013-05-05 22:29:00,
2013-05-05 18:34:00,45.2,45.2,29.84,East,88,5.0,11.0,100,0.08,,---,1.68,VWS V14.01,2013-05-05 22:34:00,
2013-05-05 18:39:00,45.2,45.2,29.84,East,79,6.0,13.0,100,0.08,,---,1.68,VWS V14.01,2013-05-05 22:39:00,
2013-05-05 18:44:00,45.2,45.2,29.83,ESE,113,6.0,13.0,100,0.08,,---,1.69,VWS V14.01,2013-05-05 22:44:00,
2013-05-05 18:49:00,45.1,45.1,29.83,East,89,8.0,8.0,100,0.08,,---,1.70,VWS V14.01,2013-05-05 22:49:00,
2013-05-05 18:54:00,45.2,45.2,29.84,ENE,77,7.0,15.0,100,0.08,,---,1.70,VWS V14.01,2013-05-05 22:54:00,
2013-05-05 18:59:00,45.2,45.2,29.84,East,88,14.0,15.0,100,0.08,,---,1.71,VWS V14.01,2013-05-05 22:59:00,
2013-05-05 19:04:00,45.2,45.2,29.84,East,88,9.0,10.0,100,0.07,,---,1.71,VWS V14.01,2013-05-05 23:04:00,
2013-05-05 19:09:00,45.2,45.2,29.84,ESE,117,9.0,13.0,100,0.08,,---,1.72,VWS V14.01,2013-05-05 23:09:00,
2013-05-05 19:14:00,45.3,45.3,29.84,SE,124,11.0,12.0,100,0.07,,---,1.72,VWS V14.01,2013-05-05 23:14:00,
2013-05-05 19:19:00,45.2,45.2,29.84,NE,40,8.0,9.0,100,0.07,,---,1.73,VWS V14.01,2013-05-05 23:19:00,
2013-05-05 19:24:00,45.2,45.2,29.84,SE,135,8.0,12.0,100,0.08,,---,1.74,VWS V14.01,2013-05-05 23:24:00,
2013-05-05 19:29:00,45.2,45.2,29.84,East,85,6.0,9.0,100,0.07,,---,1.74,VWS V14.01,2013-05-05 23:29:00,
2013-05-05 19:34:00,45.2,45.2,29.84,ESE,118,8.0,10.0,100,0.07,,---,1.75,VWS V14.01,2013-05-05 23:34:00,
2013-05-05 19:39:00,45.4,45.4,29.84,East,99,8.0,9.0,100,0.08,,---,1.76,VWS V14.01,2013-05-05 23:39:00,
2013-05-05 19:44:00,45.4,45.4,29.84,ESE,117,8.0,8.0,100,0.07,,---,1.76,VWS V14.01,2013-05-05 23:44:00,
2013-05-05 19:49:00,45.3,45.3,29.84,East,86,13.0,14.0,100,0.07,,---,1.77,VWS V14.01,2013-05-05 23:49:00,
2013-05-05 19:54:00,45.0,45.0,29.85,ESE,122,8.0,11.0,100,0.07,,---,1.77,VWS V14.01,2013-05-05 23:54:00,
2013-05-05 19:59:00,44.8,44.8,29.85,East,95,15.0,15.0,100,0.07,,---,1.78,VWS V14.01,2013-05-05 23:59:00,
2013-05-05 20:04:00,44.8,44.8,29.85,SE,145,9.0,14.0,100,0.07,,---,1.78,VWS V14.01,2013-05-06 00:04:00,
2013-05-05 20:09:00,44.8,44.8,29.85,SSE,162,7.0,9.0,100,0.07,,---,1.79,VWS V14.01,2013-05-06 00:09:00,
2013-05-05 20:14:00,44.7,44.7,29.85,East,95,8.0,12.0,100,0.08,,---,1.80,VWS V14.01,2013-05-06 00:14:00,
2013-05-05 20:19:00,44.7,44.7,29.85,East,101,5.0,10.0,100,0.07,,---,1.80,VWS V14.01,2013-05-06 00:19:00,
2013-05-05 20:24:00,44.7,44.7,29.85,East,100,8.0,8.0,100,0.06,,---,1.80,VWS V14.01,2013-05-06 00:24:00,
2013-05-05 20:29:00,44.7,44.7,29.85,ESE,104,12.0,12.0,100,0.07,,---,1.81,VWS V14.01,2013-05-06 00:29:00,
2013-05-05 20:34:00,44.7,44.7,29.85,ESE,107,5.0,7.0,100,0.07,,---,1.82,VWS V14.01,2013-05-06 00:34:00,
2013-05-05 20:39:00,44.7,44.7,29.85,ESE,122,7.0,8.0,100,0.06,,---,1.82,VWS V14.01,2013-05-06 00:39:00,
2013-05-05 20:44:00,44.7,44.7,29.85,East,89,10.0,11.0,100,0.06,,---,1.82,VWS V14.01,2013-05-06 00:44:00,
2013-05-05 20:49:00,44.8,44.8,29.84,SSE,167,8.0,10.0,100,0.06,,---,1.83,VWS V14.01,2013-05-06 00:49:00,
2013-05-05 20:54:00,44.8,44.8,29.84,East,93,11.0,13.0,100,0.07,,---,1.84,VWS V14.01,2013-05-06 00:54:00,
2013-05-05 20:59:00,44.8,44.8,29.84,ESE,102,10.0,10.0,100,0.06,,---,1.84,VWS V14.01,2013-05-06 00:59:00,
2013-05-05 21:04:00,44.9,44.9,29.84,ESE,108,7.0,9.0,100,0.06,,---,1.84,VWS V14.01,2013-05-06 01:04:00,
2013-05-05 21:09:00,45.0,45.0,29.84,East,87,11.0,13.0,100,0.06,,---,1.85,VWS V14.01,2013-05-06 01:09:00,
2013-05-05 21:14:00,45.0,45.0,29.84,East,97,5.0,7.0,100,0.07,,---,1.86,VWS V14.01,2013-05-06 01:14:00,
2013-05-05 21:19:00,45.1,45.1,29.84,East,101,5.0,7.0,100,0.06,,---,1.86,VWS V14.01,2013-05-06 01:19:00,
2013-05-05 21:24:00,45.1,45.1,29.84,ESE,108,7.0,11.0,100,0.06,,---,1.86,VWS V14.01,2013-05-06 01:24:00,
2013-05-05 21:29:00,45.1,45.1,29.84,ESE,108,4.0,7.0,100,0.06,,---,1.87,VWS V14.01,2013-05-06 01:29:00,
2013-05-05 21:34:00,45.1,45.1,29.84,East,92,8.0,10.0,100,0.05,,---,1.87,VWS V14.01,2013-05-06 01:34:00,
2013-05-05 21:39:00,45.1,45.1,29.84,ESE,115,13.0,13.0,100,0.06,,---,1.88,VWS V14.01,2013-05-06 01:39:00,
2013-05-05 21:44:00,45.1,45.1,29.85,East,99,8.0,9.0,100,0.06,,---,1.88,VWS V14.01,2013-05-06 01:44:00,
2013-05-05 21:49:00,45.1,45.1,29.84,East,96,9.0,12.0,100,0.05,,---,1.88,VWS V14.01,2013-05-06 01:49:00,
2013-05-05 21:54:00,45.1,45.1,29.85,SE,128,8.0,8.0,100,0.05,,---,1.89,VWS V14.01,2013-05-06 01:54:00,
2013-05-05 21:59:00,45.1,45.1,29.85,ESE,117,5.0,8.0,100,0.05,,---,1.89,VWS V14.01,2013-05-06 01:59:00,
2013-05-05 22:04:00,45.1,45.1,29.85,ESE,119,5.0,7.0,100,0.06,,---,1.90,VWS V14.01,2013-05-06 02:04:00,
2013-05-05 22:09:00,45.1,45.1,29.84,ESE,104,7.0,7.0,100,0.05,,---,1.90,VWS V14.01,2013-05-06 02:09:00,
2013-05-05 22:14:00,45.1,45.1,29.84,SE,132,9.0,9.0,100,0.05,,---,1.90,VWS V14.01,2013-05-06 02:14:00,
2013-05-05 22:19:00,45.0,45.0,29.84,SE,139,9.0,9.0,100,0.05,,---,1.91,VWS V14.01,2013-05-06 02:19:00,
2013-05-05 22:24:00,45.0,45.0,29.84,SE,124,7.0,7.0,100,0.05,,---,1.91,VWS V14.01,2013-05-06 02:24:00,
2013-05-05 22:29:00,45.0,45.0,29.84,East,87,13.0,13.0,100,0.05,,---,1.92,VWS V14.01,2013-05-06 02:29:00,
2013-05-05 22:34:00,44.9,44.9,29.85,ESE,120,9.0,9.0,100,0.05,,---,1.92,VWS V14.01,2013-05-06 02:34:00,
2013-05-05 22:39:00,44.9,44.9,29.85,SSE,156,9.0,9.0,100,0.04,,---,1.92,VWS V14.01,2013-05-06 02:39:00,
2013-05-05 22:44:00,44.9,44.9,29.85,ESE,109,7.0,10.0,100,0.05,,---,1.93,VWS V14.01,2013-05-06 02:44:00,
2013-05-05 22:49:00,45.0,45.0,29.85,East,91,8.0,10.0,100,0.05,,---,1.93,VWS V14.01,2013-05-06 02:49:00,
2013-05-05 22:54:00,45.1,45.1,29.85,East,91,4.0,8.0,100,0.04,,---,1.93,VWS V14.01,2013-05-06 02:54:00,
2013-05-05 22:59:00,45.2,45.2,29.86,ESE,120,6.0,10.0,100,0.05,,---,1.94,VWS V14.01,2013-05-06 02:59:00,
2013-05-05 23:04:00,45.3,45.3,29.86,East,97,9.0,9.0,100,0.04,,---,1.94,VWS V14.01,2013-05-06 03:04:00,
2013-05-05 23:09:00,45.3,45.3,29.86,SSE,152,5.0,8.0,100,0.04,,---,1.94,VWS V14.01,2013-05-06 03:09:00,
2013-05-05 23:14:00,45.3,45.3,29.85,SE,140,10.0,13.0,100,0.05,,---,1.95,VWS V14.01,2013-05-06 03:14:00,
2013-05-05 23:19:00,45.3,45.3,29.85,SE,127,9.0,10.0,100,0.04,,---,1.95,VWS V14.01,2013-05-06 03:19:00,
2013-05-05 23:24:00,45.4,45.4,29.85,SE,124,8.0,11.0,100,0.04,,---,1.95,VWS V14.01,2013-05-06 03:24:00,
2013-05-05 23:29:00,45.4,45.4,29.85,ESE,120,10.0,11.0,100,0.04,,---,1.96,VWS V14.01,2013-05-06 03:29:00,
2013-05-05 23:34:00,45.5,45.5,29.85,SSE,167,8.0,14.0,100,0.04,,---,1.96,VWS V14.01,2013-05-06 03:34:00,
2013-05-05 23:39:00,45.6,45.6,29.84,SE,126,9.0,11.0,100,0.04,,---,1.96,VWS V14.01,2013-05-06 03:39:00,
2013-05-05 23:44:00,45.6,45.6,29.84,ESE,102,8.0,13.0,100,0.04,,---,1.97,VWS V14.01,2013-05-06 03:44:00,
2013-05-05 23:49:00,45.6,45.6,29.84,ESE,120,6.0,8.0,100,0.04,,---,1.97,VWS V14.01,2013-05-06 03:49:00,
2013-05-05 23:54:00,45.6,45.6,29.84,SE,133,9.0,13.0,100,0.04,,---,1.97,VWS V14.01,2013-05-06 03:54:00,
2013-05-05 23:59:00,45.6,45.6,29.83,ESE,102,9.0,13.0,100,0.04,,---,1.98,VWS V14.01,2013-05-06 03:59:00,